owner,sensor,date,latitude,longitude,air_temperature,qcFlag 
COMPS,ioos:station:USF.COMPS:NFB:1,2010-09-01T00:00:00Z,25.0840,-81.0960,28.3,1111122 
COMPS,ioos:station:USF.COMPS:NFB:1,2010-09-01T00:06:00Z,25.0840,-81.0960,28.46,1111122 
COMPS,ioos:station:USF.COMPS:NFB:1,2010-09-01T00:12:00Z,25.0840,-81.0960,28.71,1111122 
COMPS,ioos:station:USF.COMPS:NFB:1,2010-09-01T00:18:00Z,25.0840,-81.0960,28.87,1111122 
COMPS,ioos:station:USF.COMPS:NFB:1,2010-09-01T00:24:00Z,25.0840,-81.0960,28.82,1111122 
COMPS,ioos:station:USF.COMPS:NFB:1,2010-09-01T00:30:00Z,25.0840,-81.0960,28.71,1111122 
COMPS,ioos:station:USF.COMPS:NFB:1,2010-09-01T00:36:00Z,25.0840,-81.0960,28.77,1111122 
COMPS,ioos:station:USF.COMPS:NFB:1,2010-09-01T00:42:00Z,25.0840,-81.0960,28.79,1111122 
COMPS,ioos:station:USF.COMPS:NFB:1,2010-09-01T00:48:00Z,25.0840,-81.0960,28.88,1111122 
COMPS,ioos:station:USF.COMPS:NFB:1,2010-09-01T00:54:00Z,25.0840,-81.0960,28.83,1111122 
COMPS,ioos:station:USF.COMPS:NFB:1,2010-09-01T01:00:00Z,25.0840,-81.0960,28.8,1111122 
COMPS,ioos:station:USF.COMPS:NFB:1,2010-09-01T01:06:00Z,25.0840,-81.0960,28.84,1111122 
COMPS,ioos:station:USF.COMPS:NFB:1,2010-09-01T01:12:00Z,25.0840,-81.0960,28.17,1111122 
COMPS,ioos:station:USF.COMPS:NFB:1,2010-09-01T01:18:00Z,25.0840,-81.0960,27.69,1111122 
COMPS,ioos:station:USF.COMPS:NFB:1,2010-09-01T01:24:00Z,25.0840,-81.0960,27.8,1111122 
COMPS,ioos:station:USF.COMPS:NFB:1,2010-09-01T01:30:00Z,25.0840,-81.0960,27.82,1111122 
COMPS,ioos:station:USF.COMPS:NFB:1,2010-09-01T01:36:00Z,25.0840,-81.0960,28.02,1111122 
COMPS,ioos:station:USF.COMPS:NFB:1,2010-09-01T01:42:00Z,25.0840,-81.0960,27.85,1111122 
COMPS,ioos:station:USF.COMPS:NFB:1,2010-09-01T01:48:00Z,25.0840,-81.0960,27.77,1111122 
COMPS,ioos:station:USF.COMPS:NFB:1,2010-09-01T01:54:00Z,25.0840,-81.0960,27.84,1111122 
COMPS,ioos:station:USF.COMPS:NFB:1,2010-09-01T02:00:00Z,25.0840,-81.0960,27.8,1111122 
COMPS,ioos:station:USF.COMPS:NFB:1,2010-09-01T13:00:00Z,25.0840,-81.0960,29.09,1111122 
COMPS,ioos:station:USF.COMPS:NFB:1,2010-09-01T13:06:00Z,25.0840,-81.0960,29.07,1111122 
COMPS,ioos:station:USF.COMPS:NFB:1,2010-09-01T13:12:00Z,25.0840,-81.0960,29.02,1111122 
COMPS,ioos:station:USF.COMPS:NFB:1,2010-09-01T13:18:00Z,25.0840,-81.0960,29.1,1111122 
COMPS,ioos:station:USF.COMPS:NFB:1,2010-09-01T13:24:00Z,25.0840,-81.0960,29.3,1111122 
COMPS,ioos:station:USF.COMPS:NFB:1,2010-09-01T13:30:00Z,25.0840,-81.0960,29.35,1111122 
COMPS,ioos:station:USF.COMPS:NFB:1,2010-09-01T13:36:00Z,25.0840,-81.0960,29.5,1111122 
COMPS,ioos:station:USF.COMPS:NFB:1,2010-09-01T13:42:00Z,25.0840,-81.0960,29.64,1111122 
COMPS,ioos:station:USF.COMPS:NFB:1,2010-09-01T13:48:00Z,25.0840,-81.0960,29.66,1111122 
COMPS,ioos:station:USF.COMPS:NFB:1,2010-09-01T13:54:00Z,25.0840,-81.0960,29.76,1111122 
COMPS,ioos:station:USF.COMPS:NFB:1,2010-09-01T14:00:00Z,25.0840,-81.0960,29.86,1111122 
COMPS,ioos:station:USF.COMPS:NFB:1,2010-09-01T14:06:00Z,25.0840,-81.0960,30.0,1111122 
COMPS,ioos:station:USF.COMPS:NFB:1,2010-09-01T14:12:00Z,25.0840,-81.0960,30.01,1111122 
COMPS,ioos:station:USF.COMPS:NFB:1,2010-09-01T14:18:00Z,25.0840,-81.0960,30.04,1111122 
COMPS,ioos:station:USF.COMPS:NFB:1,2010-09-01T14:24:00Z,25.0840,-81.0960,30.03,1111122 
COMPS,ioos:station:USF.COMPS:NFB:1,2010-09-01T14:30:00Z,25.0840,-81.0960,29.91,1111122 
COMPS,ioos:station:USF.COMPS:NFB:1,2010-09-01T14:36:00Z,25.0840,-81.0960,30.16,1111122 
COMPS,ioos:station:USF.COMPS:NFB:1,2010-09-01T14:42:00Z,25.0840,-81.0960,30.2,1111122 
COMPS,ioos:station:USF.COMPS:NFB:1,2010-09-01T14:48:00Z,25.0840,-81.0960,30.3,1111122 
COMPS,ioos:station:USF.COMPS:NFB:1,2010-09-01T14:54:00Z,25.0840,-81.0960,30.32,1111122 
COMPS,ioos:station:USF.COMPS:NFB:1,2010-09-01T16:00:00Z,25.0840,-81.0960,30.54,1111122 
COMPS,ioos:station:USF.COMPS:NFB:1,2010-09-01T16:06:00Z,25.0840,-81.0960,30.22,1111122 
COMPS,ioos:station:USF.COMPS:NFB:1,2010-09-01T16:12:00Z,25.0840,-81.0960,30.0,1111122 
COMPS,ioos:station:USF.COMPS:NFB:1,2010-09-01T16:18:00Z,25.0840,-81.0960,30.15,1111122 
COMPS,ioos:station:USF.COMPS:NFB:1,2010-09-01T16:24:00Z,25.0840,-81.0960,30.28,1111122 
COMPS,ioos:station:USF.COMPS:NFB:1,2010-09-01T16:30:00Z,25.0840,-81.0960,30.5,1111122 
COMPS,ioos:station:USF.COMPS:NFB:1,2010-09-01T16:36:00Z,25.0840,-81.0960,30.51,1111122 
COMPS,ioos:station:USF.COMPS:NFB:1,2010-09-01T16:42:00Z,25.0840,-81.0960,30.53,1111122 
COMPS,ioos:station:USF.COMPS:NFB:1,2010-09-01T16:48:00Z,25.0840,-81.0960,30.61,1111122 
COMPS,ioos:station:USF.COMPS:NFB:1,2010-09-01T16:54:00Z,25.0840,-81.0960,30.55,1111122 
COMPS,ioos:station:USF.COMPS:NFB:1,2010-09-01T17:00:00Z,25.0840,-81.0960,30.6,1111122 
COMPS,ioos:station:USF.COMPS:NFB:1,2010-09-01T17:06:00Z,25.0840,-81.0960,30.64,1111122 
COMPS,ioos:station:USF.COMPS:NFB:1,2010-09-01T17:12:00Z,25.0840,-81.0960,30.68,1111122 
COMPS,ioos:station:USF.COMPS:NFB:1,2010-09-01T17:18:00Z,25.0840,-81.0960,30.71,1111122 
COMPS,ioos:station:USF.COMPS:NFB:1,2010-09-01T17:24:00Z,25.0840,-81.0960,30.72,1111122 
COMPS,ioos:station:USF.COMPS:NFB:1,2010-09-01T17:30:00Z,25.0840,-81.0960,30.7,1111122 
COMPS,ioos:station:USF.COMPS:NFB:1,2010-09-01T17:36:00Z,25.0840,-81.0960,30.64,1111122 
COMPS,ioos:station:USF.COMPS:NFB:1,2010-09-01T17:42:00Z,25.0840,-81.0960,30.63,1111122 
COMPS,ioos:station:USF.COMPS:NFB:1,2010-09-01T17:48:00Z,25.0840,-81.0960,30.52,1111122 
COMPS,ioos:station:USF.COMPS:NFB:1,2010-09-01T17:54:00Z,25.0840,-81.0960,30.57,1111122 
COMPS,ioos:station:USF.COMPS:NFB:1,2010-09-01T18:00:00Z,25.0840,-81.0960,30.6,1111122 
COMPS,ioos:station:USF.COMPS:NFB:1,2010-09-01T18:06:00Z,25.0840,-81.0960,30.51,1111122 
COMPS,ioos:station:USF.COMPS:NFB:1,2010-09-01T18:12:00Z,25.0840,-81.0960,30.74,1111122 
COMPS,ioos:station:USF.COMPS:NFB:1,2010-09-01T18:18:00Z,25.0840,-81.0960,30.64,1111122 
COMPS,ioos:station:USF.COMPS:NFB:1,2010-09-01T18:24:00Z,25.0840,-81.0960,30.9,1111122 
COMPS,ioos:station:USF.COMPS:NFB:1,2010-09-01T18:30:00Z,25.0840,-81.0960,30.97,1111122 
COMPS,ioos:station:USF.COMPS:NFB:1,2010-09-01T18:36:00Z,25.0840,-81.0960,31.12,1111122 
COMPS,ioos:station:USF.COMPS:NFB:1,2010-09-01T18:42:00Z,25.0840,-81.0960,31.24,1111122 
COMPS,ioos:station:USF.COMPS:NFB:1,2010-09-01T18:48:00Z,25.0840,-81.0960,31.24,1111122 
COMPS,ioos:station:USF.COMPS:NFB:1,2010-09-01T18:54:00Z,25.0840,-81.0960,31.27,1111122 
COMPS,ioos:station:USF.COMPS:NFB:1,2010-09-01T19:00:00Z,25.0840,-81.0960,31.3,1111122 
COMPS,ioos:station:USF.COMPS:NFB:1,2010-09-01T19:06:00Z,25.0840,-81.0960,31.37,1111122 
COMPS,ioos:station:USF.COMPS:NFB:1,2010-09-01T19:12:00Z,25.0840,-81.0960,31.37,1111122 
COMPS,ioos:station:USF.COMPS:NFB:1,2010-09-01T19:18:00Z,25.0840,-81.0960,31.38,1111122 
COMPS,ioos:station:USF.COMPS:NFB:1,2010-09-01T19:24:00Z,25.0840,-81.0960,31.4,1111122 
COMPS,ioos:station:USF.COMPS:NFB:1,2010-09-01T19:30:00Z,25.0840,-81.0960,31.35,1111122 
COMPS,ioos:station:USF.COMPS:NFB:1,2010-09-01T19:36:00Z,25.0840,-81.0960,31.31,1111122 
COMPS,ioos:station:USF.COMPS:NFB:1,2010-09-01T19:42:00Z,25.0840,-81.0960,31.21,1111122 
COMPS,ioos:station:USF.COMPS:NFB:1,2010-09-01T19:48:00Z,25.0840,-81.0960,31.18,1111122 
COMPS,ioos:station:USF.COMPS:NFB:1,2010-09-01T19:54:00Z,25.0840,-81.0960,31.13,1111122 
COMPS,ioos:station:USF.COMPS:NFB:1,2010-09-01T20:00:00Z,25.0840,-81.0960,31.1,1111122 
COMPS,ioos:station:USF.COMPS:NFB:1,2010-09-01T20:06:00Z,25.0840,-81.0960,31.24,1111122 
COMPS,ioos:station:USF.COMPS:NFB:1,2010-09-01T20:12:00Z,25.0840,-81.0960,31.16,1111122 
COMPS,ioos:station:USF.COMPS:NFB:1,2010-09-01T20:18:00Z,25.0840,-81.0960,31.44,1111122 
COMPS,ioos:station:USF.COMPS:NFB:1,2010-09-01T20:24:00Z,25.0840,-81.0960,31.51,1111122 
COMPS,ioos:station:USF.COMPS:NFB:1,2010-09-01T20:30:00Z,25.0840,-81.0960,31.53,1111122 
COMPS,ioos:station:USF.COMPS:NFB:1,2010-09-01T20:36:00Z,25.0840,-81.0960,31.52,1111122 
COMPS,ioos:station:USF.COMPS:NFB:1,2010-09-01T20:42:00Z,25.0840,-81.0960,31.52,1111122 
COMPS,ioos:station:USF.COMPS:NFB:1,2010-09-01T20:48:00Z,25.0840,-81.0960,31.41,1111122 
COMPS,ioos:station:USF.COMPS:NFB:1,2010-09-01T20:54:00Z,25.0840,-81.0960,31.19,1111122 
COMPS,ioos:station:USF.COMPS:NFB:1,2010-09-01T21:00:00Z,25.0840,-81.0960,31.2,1111122 
COMPS,ioos:station:USF.COMPS:NFB:1,2010-09-01T21:06:00Z,25.0840,-81.0960,31.24,1111122 
COMPS,ioos:station:USF.COMPS:NFB:1,2010-09-01T21:12:00Z,25.0840,-81.0960,31.28,1111122 
COMPS,ioos:station:USF.COMPS:NFB:1,2010-09-01T21:18:00Z,25.0840,-81.0960,31.35,1111122 
COMPS,ioos:station:USF.COMPS:NFB:1,2010-09-01T21:24:00Z,25.0840,-81.0960,31.45,1111122 
COMPS,ioos:station:USF.COMPS:NFB:1,2010-09-01T21:30:00Z,25.0840,-81.0960,31.34,1111122 
COMPS,ioos:station:USF.COMPS:NFB:1,2010-09-01T21:36:00Z,25.0840,-81.0960,31.31,1111122 
COMPS,ioos:station:USF.COMPS:NFB:1,2010-09-01T21:42:00Z,25.0840,-81.0960,31.43,1111122 
COMPS,ioos:station:USF.COMPS:NFB:1,2010-09-01T21:48:00Z,25.0840,-81.0960,31.47,1111122 
COMPS,ioos:station:USF.COMPS:NFB:1,2010-09-01T21:54:00Z,25.0840,-81.0960,31.42,1111122 
COMPS,ioos:station:USF.COMPS:NFB:1,2010-09-01T22:00:00Z,25.0840,-81.0960,31.4,1111122 
COMPS,ioos:station:USF.COMPS:NFB:1,2010-09-01T22:06:00Z,25.0840,-81.0960,31.48,1111122 
COMPS,ioos:station:USF.COMPS:NFB:1,2010-09-01T22:12:00Z,25.0840,-81.0960,31.49,1111122 
COMPS,ioos:station:USF.COMPS:NFB:1,2010-09-01T22:18:00Z,25.0840,-81.0960,31.33,1111122 
COMPS,ioos:station:USF.COMPS:NFB:1,2010-09-01T22:24:00Z,25.0840,-81.0960,31.29,1111122 
COMPS,ioos:station:USF.COMPS:NFB:1,2010-09-01T22:30:00Z,25.0840,-81.0960,31.1,1111122 
COMPS,ioos:station:USF.COMPS:NFB:1,2010-09-01T22:36:00Z,25.0840,-81.0960,31.12,1111122 
COMPS,ioos:station:USF.COMPS:NFB:1,2010-09-01T22:42:00Z,25.0840,-81.0960,31.07,1111122 
COMPS,ioos:station:USF.COMPS:NFB:1,2010-09-01T22:48:00Z,25.0840,-81.0960,30.99,1111122 
COMPS,ioos:station:USF.COMPS:NFB:1,2010-09-01T22:54:00Z,25.0840,-81.0960,30.88,1111122 
COMPS,ioos:station:USF.COMPS:NFB:1,2010-09-01T23:00:00Z,25.0840,-81.0960,30.9,1111122 
COMPS,ioos:station:USF.COMPS:NFB:1,2010-09-01T23:06:00Z,25.0840,-81.0960,30.92,1111122 
COMPS,ioos:station:USF.COMPS:NFB:1,2010-09-01T23:12:00Z,25.0840,-81.0960,30.77,1111122 
COMPS,ioos:station:USF.COMPS:NFB:1,2010-09-01T23:18:00Z,25.0840,-81.0960,30.86,1111122 
COMPS,ioos:station:USF.COMPS:NFB:1,2010-09-01T23:24:00Z,25.0840,-81.0960,30.86,1111122 
COMPS,ioos:station:USF.COMPS:NFB:1,2010-09-01T23:30:00Z,25.0840,-81.0960,30.76,1111122 
COMPS,ioos:station:USF.COMPS:NFB:1,2010-09-01T23:36:00Z,25.0840,-81.0960,30.72,1111122 
COMPS,ioos:station:USF.COMPS:NFB:1,2010-09-01T23:42:00Z,25.0840,-81.0960,30.72,1111122 
COMPS,ioos:station:USF.COMPS:NFB:1,2010-09-01T23:48:00Z,25.0840,-81.0960,30.72,1111122 
COMPS,ioos:station:USF.COMPS:NFB:1,2010-09-01T23:54:00Z,25.0840,-81.0960,30.68,1111122 
COMPS,ioos:station:USF.COMPS:NFB:1,2010-09-02T00:00:00Z,25.0840,-81.0960,30.7,1111122 
COMPS,ioos:station:USF.COMPS:NFB:1,2010-09-02T00:06:00Z,25.0840,-81.0960,30.48,1111122 
COMPS,ioos:station:USF.COMPS:NFB:1,2010-09-02T00:12:00Z,25.0840,-81.0960,30.45,1111122 
COMPS,ioos:station:USF.COMPS:NFB:1,2010-09-02T00:18:00Z,25.0840,-81.0960,30.34,1111122 
COMPS,ioos:station:USF.COMPS:NFB:1,2010-09-02T00:24:00Z,25.0840,-81.0960,30.29,1111122 
COMPS,ioos:station:USF.COMPS:NFB:1,2010-09-02T00:30:00Z,25.0840,-81.0960,30.17,1111122 
COMPS,ioos:station:USF.COMPS:NFB:1,2010-09-02T00:36:00Z,25.0840,-81.0960,30.16,1111122 
COMPS,ioos:station:USF.COMPS:NFB:1,2010-09-02T00:42:00Z,25.0840,-81.0960,30.1,1111122 
COMPS,ioos:station:USF.COMPS:NFB:1,2010-09-02T00:48:00Z,25.0840,-81.0960,30.0,1111122 
COMPS,ioos:station:USF.COMPS:NFB:1,2010-09-02T00:54:00Z,25.0840,-81.0960,29.91,1111122 
COMPS,ioos:station:USF.COMPS:NFB:1,2010-09-02T01:00:00Z,25.0840,-81.0960,29.9,1111122 
COMPS,ioos:station:USF.COMPS:NFB:1,2010-09-02T01:06:00Z,25.0840,-81.0960,29.76,1111122 
COMPS,ioos:station:USF.COMPS:NFB:1,2010-09-02T01:12:00Z,25.0840,-81.0960,29.65,1111122 
COMPS,ioos:station:USF.COMPS:NFB:1,2010-09-02T01:18:00Z,25.0840,-81.0960,29.64,1111122 
COMPS,ioos:station:USF.COMPS:NFB:1,2010-09-02T01:24:00Z,25.0840,-81.0960,29.61,1111122 
COMPS,ioos:station:USF.COMPS:NFB:1,2010-09-02T01:30:00Z,25.0840,-81.0960,29.49,1111122 
COMPS,ioos:station:USF.COMPS:NFB:1,2010-09-02T01:36:00Z,25.0840,-81.0960,29.51,1111122 
COMPS,ioos:station:USF.COMPS:NFB:1,2010-09-02T01:42:00Z,25.0840,-81.0960,29.5,1111122 
COMPS,ioos:station:USF.COMPS:NFB:1,2010-09-02T01:48:00Z,25.0840,-81.0960,29.51,1111122 
COMPS,ioos:station:USF.COMPS:NFB:1,2010-09-02T01:54:00Z,25.0840,-81.0960,29.49,1111122 
COMPS,ioos:station:USF.COMPS:NFB:1,2010-09-02T02:00:00Z,25.0840,-81.0960,29.5,1111122 
COMPS,ioos:station:USF.COMPS:NFB:1,2010-09-02T02:06:00Z,25.0840,-81.0960,29.37,1111122 
COMPS,ioos:station:USF.COMPS:NFB:1,2010-09-02T02:12:00Z,25.0840,-81.0960,29.37,1111122 
COMPS,ioos:station:USF.COMPS:NFB:1,2010-09-02T02:18:00Z,25.0840,-81.0960,29.33,1111122 
COMPS,ioos:station:USF.COMPS:NFB:1,2010-09-02T02:24:00Z,25.0840,-81.0960,29.37,1111122 
COMPS,ioos:station:USF.COMPS:NFB:1,2010-09-02T02:30:00Z,25.0840,-81.0960,29.21,1111122 
COMPS,ioos:station:USF.COMPS:NFB:1,2010-09-02T02:36:00Z,25.0840,-81.0960,29.24,1111122 
COMPS,ioos:station:USF.COMPS:NFB:1,2010-09-02T02:42:00Z,25.0840,-81.0960,29.24,1111122 
COMPS,ioos:station:USF.COMPS:NFB:1,2010-09-02T02:48:00Z,25.0840,-81.0960,29.24,1111122 
COMPS,ioos:station:USF.COMPS:NFB:1,2010-09-02T02:54:00Z,25.0840,-81.0960,29.24,1111122 
COMPS,ioos:station:USF.COMPS:NFB:1,2010-09-02T03:00:00Z,25.0840,-81.0960,29.2,1111122 
COMPS,ioos:station:USF.COMPS:NFB:1,2010-09-02T03:06:00Z,25.0840,-81.0960,29.15,1111122 
COMPS,ioos:station:USF.COMPS:NFB:1,2010-09-02T03:12:00Z,25.0840,-81.0960,29.1,1111122 
COMPS,ioos:station:USF.COMPS:NFB:1,2010-09-02T03:18:00Z,25.0840,-81.0960,29.1,1111122 
COMPS,ioos:station:USF.COMPS:NFB:1,2010-09-02T03:24:00Z,25.0840,-81.0960,29.04,1111122 
COMPS,ioos:station:USF.COMPS:NFB:1,2010-09-02T03:30:00Z,25.0840,-81.0960,28.99,1111122 
COMPS,ioos:station:USF.COMPS:NFB:1,2010-09-02T03:36:00Z,25.0840,-81.0960,28.97,1111122 
COMPS,ioos:station:USF.COMPS:NFB:1,2010-09-02T03:42:00Z,25.0840,-81.0960,29.0,1111122 
COMPS,ioos:station:USF.COMPS:NFB:1,2010-09-02T03:48:00Z,25.0840,-81.0960,29.0,1111122 
COMPS,ioos:station:USF.COMPS:NFB:1,2010-09-02T03:54:00Z,25.0840,-81.0960,28.95,1111122 
COMPS,ioos:station:USF.COMPS:NFB:1,2010-09-02T04:00:00Z,25.0840,-81.0960,29.0,1111122 
COMPS,ioos:station:USF.COMPS:NFB:1,2010-09-02T04:06:00Z,25.0840,-81.0960,28.84,1111122 
COMPS,ioos:station:USF.COMPS:NFB:1,2010-09-02T04:12:00Z,25.0840,-81.0960,28.81,1111122 
COMPS,ioos:station:USF.COMPS:NFB:1,2010-09-02T04:18:00Z,25.0840,-81.0960,28.73,1111122 
COMPS,ioos:station:USF.COMPS:NFB:1,2010-09-02T04:24:00Z,25.0840,-81.0960,28.76,1111122 
COMPS,ioos:station:USF.COMPS:NFB:1,2010-09-02T04:30:00Z,25.0840,-81.0960,28.68,1111122 
COMPS,ioos:station:USF.COMPS:NFB:1,2010-09-02T04:36:00Z,25.0840,-81.0960,28.69,1111122 
COMPS,ioos:station:USF.COMPS:NFB:1,2010-09-02T04:42:00Z,25.0840,-81.0960,28.69,1111122 
COMPS,ioos:station:USF.COMPS:NFB:1,2010-09-02T04:48:00Z,25.0840,-81.0960,28.69,1111122 
COMPS,ioos:station:USF.COMPS:NFB:1,2010-09-02T04:54:00Z,25.0840,-81.0960,28.68,1111122 
COMPS,ioos:station:USF.COMPS:NFB:1,2010-09-02T05:00:00Z,25.0840,-81.0960,28.7,1111122 
COMPS,ioos:station:USF.COMPS:NFB:1,2010-09-02T05:06:00Z,25.0840,-81.0960,28.55,1111122 
COMPS,ioos:station:USF.COMPS:NFB:1,2010-09-02T05:12:00Z,25.0840,-81.0960,28.5,1111122 
COMPS,ioos:station:USF.COMPS:NFB:1,2010-09-02T05:18:00Z,25.0840,-81.0960,28.53,1111122 
COMPS,ioos:station:USF.COMPS:NFB:1,2010-09-02T05:24:00Z,25.0840,-81.0960,28.54,1111122 
COMPS,ioos:station:USF.COMPS:NFB:1,2010-09-02T05:30:00Z,25.0840,-81.0960,28.4,1111122 
COMPS,ioos:station:USF.COMPS:NFB:1,2010-09-02T05:36:00Z,25.0840,-81.0960,28.37,1111122 
COMPS,ioos:station:USF.COMPS:NFB:1,2010-09-02T05:42:00Z,25.0840,-81.0960,28.29,1111122 
COMPS,ioos:station:USF.COMPS:NFB:1,2010-09-02T05:48:00Z,25.0840,-81.0960,28.27,1111122 
COMPS,ioos:station:USF.COMPS:NFB:1,2010-09-02T05:54:00Z,25.0840,-81.0960,28.16,1111122 
COMPS,ioos:station:USF.COMPS:NFB:1,2010-09-02T06:00:00Z,25.0840,-81.0960,28.2,1111122 
COMPS,ioos:station:USF.COMPS:NFB:1,2010-09-02T06:06:00Z,25.0840,-81.0960,28.02,1111122 
COMPS,ioos:station:USF.COMPS:NFB:1,2010-09-02T06:12:00Z,25.0840,-81.0960,28.01,1111122 
COMPS,ioos:station:USF.COMPS:NFB:1,2010-09-02T06:18:00Z,25.0840,-81.0960,28.01,1111122 
COMPS,ioos:station:USF.COMPS:NFB:1,2010-09-02T06:24:00Z,25.0840,-81.0960,28.0,1111122 
COMPS,ioos:station:USF.COMPS:NFB:1,2010-09-02T06:30:00Z,25.0840,-81.0960,27.91,1111122 
COMPS,ioos:station:USF.COMPS:NFB:1,2010-09-02T06:36:00Z,25.0840,-81.0960,27.91,1111122 
COMPS,ioos:station:USF.COMPS:NFB:1,2010-09-02T06:42:00Z,25.0840,-81.0960,27.89,1111122 
COMPS,ioos:station:USF.COMPS:NFB:1,2010-09-02T06:48:00Z,25.0840,-81.0960,27.9,1111122 
COMPS,ioos:station:USF.COMPS:NFB:1,2010-09-02T06:54:00Z,25.0840,-81.0960,27.89,1111122 
COMPS,ioos:station:USF.COMPS:NFB:1,2010-09-02T07:00:00Z,25.0840,-81.0960,27.9,1111122 
COMPS,ioos:station:USF.COMPS:NFB:1,2010-09-02T07:06:00Z,25.0840,-81.0960,28.0,1111122 
COMPS,ioos:station:USF.COMPS:NFB:1,2010-09-02T07:12:00Z,25.0840,-81.0960,27.96,1111122 
COMPS,ioos:station:USF.COMPS:NFB:1,2010-09-02T07:18:00Z,25.0840,-81.0960,27.96,1111122 
COMPS,ioos:station:USF.COMPS:NFB:1,2010-09-02T07:24:00Z,25.0840,-81.0960,27.98,1111122 
COMPS,ioos:station:USF.COMPS:NFB:1,2010-09-02T07:30:00Z,25.0840,-81.0960,27.83,1111122 
COMPS,ioos:station:USF.COMPS:NFB:1,2010-09-02T07:36:00Z,25.0840,-81.0960,27.77,1111122 
COMPS,ioos:station:USF.COMPS:NFB:1,2010-09-02T07:42:00Z,25.0840,-81.0960,27.62,1111122 
COMPS,ioos:station:USF.COMPS:NFB:1,2010-09-02T07:48:00Z,25.0840,-81.0960,27.61,1111122 
COMPS,ioos:station:USF.COMPS:NFB:1,2010-09-02T07:54:00Z,25.0840,-81.0960,27.52,1111122 
COMPS,ioos:station:USF.COMPS:NFB:1,2010-09-02T08:00:00Z,25.0840,-81.0960,27.5,1111122 
COMPS,ioos:station:USF.COMPS:NFB:1,2010-09-02T08:06:00Z,25.0840,-81.0960,27.47,1111122 
COMPS,ioos:station:USF.COMPS:NFB:1,2010-09-02T08:12:00Z,25.0840,-81.0960,27.47,1111122 
COMPS,ioos:station:USF.COMPS:NFB:1,2010-09-02T08:18:00Z,25.0840,-81.0960,27.49,1111122 
COMPS,ioos:station:USF.COMPS:NFB:1,2010-09-02T08:24:00Z,25.0840,-81.0960,27.47,1111122 
COMPS,ioos:station:USF.COMPS:NFB:1,2010-09-02T08:30:00Z,25.0840,-81.0960,27.37,1111122 
COMPS,ioos:station:USF.COMPS:NFB:1,2010-09-02T08:36:00Z,25.0840,-81.0960,27.34,1111122 
COMPS,ioos:station:USF.COMPS:NFB:1,2010-09-02T08:42:00Z,25.0840,-81.0960,27.34,1111122 
COMPS,ioos:station:USF.COMPS:NFB:1,2010-09-02T08:48:00Z,25.0840,-81.0960,27.34,1111122 
COMPS,ioos:station:USF.COMPS:NFB:1,2010-09-02T08:54:00Z,25.0840,-81.0960,27.42,1111122 
COMPS,ioos:station:USF.COMPS:NFB:1,2010-09-02T09:00:00Z,25.0840,-81.0960,27.4,1111122 
COMPS,ioos:station:USF.COMPS:NFB:1,2010-09-02T09:06:00Z,25.0840,-81.0960,27.38,1111122 
COMPS,ioos:station:USF.COMPS:NFB:1,2010-09-02T09:12:00Z,25.0840,-81.0960,27.31,1111122 
COMPS,ioos:station:USF.COMPS:NFB:1,2010-09-02T09:18:00Z,25.0840,-81.0960,27.26,1111122 
COMPS,ioos:station:USF.COMPS:NFB:1,2010-09-02T09:24:00Z,25.0840,-81.0960,27.21,1111122 
COMPS,ioos:station:USF.COMPS:NFB:1,2010-09-02T09:30:00Z,25.0840,-81.0960,27.2,1111122 
COMPS,ioos:station:USF.COMPS:NFB:1,2010-09-02T09:36:00Z,25.0840,-81.0960,27.09,1111122 
COMPS,ioos:station:USF.COMPS:NFB:1,2010-09-02T09:42:00Z,25.0840,-81.0960,27.15,1111122 
COMPS,ioos:station:USF.COMPS:NFB:1,2010-09-02T09:48:00Z,25.0840,-81.0960,27.17,1111122 
COMPS,ioos:station:USF.COMPS:NFB:1,2010-09-02T09:54:00Z,25.0840,-81.0960,27.2,1111122 
COMPS,ioos:station:USF.COMPS:NFB:1,2010-09-02T10:00:00Z,25.0840,-81.0960,27.2,1111122 
COMPS,ioos:station:USF.COMPS:NFB:1,2010-09-02T10:06:00Z,25.0840,-81.0960,27.24,1111122 
COMPS,ioos:station:USF.COMPS:NFB:1,2010-09-02T10:12:00Z,25.0840,-81.0960,27.19,1111122 
COMPS,ioos:station:USF.COMPS:NFB:1,2010-09-02T10:18:00Z,25.0840,-81.0960,27.08,1111122 
COMPS,ioos:station:USF.COMPS:NFB:1,2010-09-02T10:24:00Z,25.0840,-81.0960,26.98,1111122 
COMPS,ioos:station:USF.COMPS:NFB:1,2010-09-02T10:30:00Z,25.0840,-81.0960,26.77,1111122 
COMPS,ioos:station:USF.COMPS:NFB:1,2010-09-02T10:36:00Z,25.0840,-81.0960,26.7,1111122 
COMPS,ioos:station:USF.COMPS:NFB:1,2010-09-02T10:42:00Z,25.0840,-81.0960,26.68,1111122 
COMPS,ioos:station:USF.COMPS:NFB:1,2010-09-02T10:48:00Z,25.0840,-81.0960,26.64,1111122 
COMPS,ioos:station:USF.COMPS:NFB:1,2010-09-02T10:54:00Z,25.0840,-81.0960,26.6,1111122 
COMPS,ioos:station:USF.COMPS:NFB:1,2010-09-02T11:00:00Z,25.0840,-81.0960,26.6,1111122 
COMPS,ioos:station:USF.COMPS:NFB:1,2010-09-02T11:06:00Z,25.0840,-81.0960,26.58,1111122 
COMPS,ioos:station:USF.COMPS:NFB:1,2010-09-02T11:12:00Z,25.0840,-81.0960,26.52,1111122 
COMPS,ioos:station:USF.COMPS:NFB:1,2010-09-02T11:18:00Z,25.0840,-81.0960,26.58,1111122 
COMPS,ioos:station:USF.COMPS:NFB:1,2010-09-02T11:24:00Z,25.0840,-81.0960,26.59,1111122 
COMPS,ioos:station:USF.COMPS:NFB:1,2010-09-02T11:30:00Z,25.0840,-81.0960,26.54,1111122 
COMPS,ioos:station:USF.COMPS:NFB:1,2010-09-02T11:36:00Z,25.0840,-81.0960,26.74,1111122 
COMPS,ioos:station:USF.COMPS:NFB:1,2010-09-02T11:42:00Z,25.0840,-81.0960,26.73,1111122 
COMPS,ioos:station:USF.COMPS:NFB:1,2010-09-02T11:48:00Z,25.0840,-81.0960,26.88,1111122 
COMPS,ioos:station:USF.COMPS:NFB:1,2010-09-02T11:54:00Z,25.0840,-81.0960,26.83,1111122 
COMPS,ioos:station:USF.COMPS:NFB:1,2010-09-02T12:00:00Z,25.0840,-81.0960,26.8,1111122 
COMPS,ioos:station:USF.COMPS:NFB:1,2010-09-02T12:06:00Z,25.0840,-81.0960,26.93,1111122 
COMPS,ioos:station:USF.COMPS:NFB:1,2010-09-02T12:12:00Z,25.0840,-81.0960,26.97,1111122 
COMPS,ioos:station:USF.COMPS:NFB:1,2010-09-02T12:18:00Z,25.0840,-81.0960,27.04,1111122 
COMPS,ioos:station:USF.COMPS:NFB:1,2010-09-02T12:24:00Z,25.0840,-81.0960,27.11,1111122 
COMPS,ioos:station:USF.COMPS:NFB:1,2010-09-02T12:30:00Z,25.0840,-81.0960,27.17,1111122 
COMPS,ioos:station:USF.COMPS:NFB:1,2010-09-02T12:36:00Z,25.0840,-81.0960,27.25,1111122 
COMPS,ioos:station:USF.COMPS:NFB:1,2010-09-02T12:42:00Z,25.0840,-81.0960,27.39,1111122 
COMPS,ioos:station:USF.COMPS:NFB:1,2010-09-02T12:48:00Z,25.0840,-81.0960,27.42,1111122 
COMPS,ioos:station:USF.COMPS:NFB:1,2010-09-02T12:54:00Z,25.0840,-81.0960,27.57,1111122 
COMPS,ioos:station:USF.COMPS:NFB:1,2010-09-02T13:00:00Z,25.0840,-81.0960,27.6,1111122 
COMPS,ioos:station:USF.COMPS:NFB:1,2010-09-02T13:06:00Z,25.0840,-81.0960,27.73,1111122 
COMPS,ioos:station:USF.COMPS:NFB:1,2010-09-02T13:12:00Z,25.0840,-81.0960,27.87,1111122 
COMPS,ioos:station:USF.COMPS:NFB:1,2010-09-02T13:18:00Z,25.0840,-81.0960,27.9,1111122 
COMPS,ioos:station:USF.COMPS:NFB:1,2010-09-02T13:24:00Z,25.0840,-81.0960,27.94,1111122 
COMPS,ioos:station:USF.COMPS:NFB:1,2010-09-02T13:30:00Z,25.0840,-81.0960,28.04,1111122 
COMPS,ioos:station:USF.COMPS:NFB:1,2010-09-02T13:36:00Z,25.0840,-81.0960,28.21,1111122 
COMPS,ioos:station:USF.COMPS:NFB:1,2010-09-02T13:42:00Z,25.0840,-81.0960,28.4,1111122 
COMPS,ioos:station:USF.COMPS:NFB:1,2010-09-02T13:48:00Z,25.0840,-81.0960,28.55,1111122 
COMPS,ioos:station:USF.COMPS:NFB:1,2010-09-02T13:54:00Z,25.0840,-81.0960,28.67,1111122 
COMPS,ioos:station:USF.COMPS:NFB:1,2010-09-02T14:00:00Z,25.0840,-81.0960,28.74,1111122 
COMPS,ioos:station:USF.COMPS:NFB:1,2010-09-02T14:06:00Z,25.0840,-81.0960,28.92,1111122 
COMPS,ioos:station:USF.COMPS:NFB:1,2010-09-02T14:12:00Z,25.0840,-81.0960,29.09,1111122 
COMPS,ioos:station:USF.COMPS:NFB:1,2010-09-02T14:18:00Z,25.0840,-81.0960,29.31,1111122 
COMPS,ioos:station:USF.COMPS:NFB:1,2010-09-02T14:24:00Z,25.0840,-81.0960,29.38,1111122 
COMPS,ioos:station:USF.COMPS:NFB:1,2010-09-02T14:30:00Z,25.0840,-81.0960,29.47,1111122 
COMPS,ioos:station:USF.COMPS:NFB:1,2010-09-02T14:36:00Z,25.0840,-81.0960,29.61,1111122 
COMPS,ioos:station:USF.COMPS:NFB:1,2010-09-02T14:42:00Z,25.0840,-81.0960,29.63,1111122 
COMPS,ioos:station:USF.COMPS:NFB:1,2010-09-02T14:48:00Z,25.0840,-81.0960,29.52,1111122 
COMPS,ioos:station:USF.COMPS:NFB:1,2010-09-02T14:54:00Z,25.0840,-81.0960,29.35,1111122 
COMPS,ioos:station:USF.COMPS:NFB:1,2010-09-02T15:00:00Z,25.0840,-81.0960,29.4,1111122 